QPF
0.01 0.06 0.07 0.00 0.00 0.00 0.00 0.00 0.00 0.00 0.00 0.00 0.00 0.00 0.00 0.00 0.00 0.00 0.00 0.00 0.00 0.00 0.00 0.00 0.00 0.00 0.00 0.00 0.00 0.00 0.00 0.00 0.00
0.01 0.04 0.06 0.04 0.01 0.00 0.00 0.00 0.00 0.00 0.00 0.00 0.00 0.00 0.00 0.00 0.00 0.00 0.00 0.00 0.00 0.00 0.00 0.00 0.00 0.00 0.00 0.00 0.00 0.00 0.00 0.00 0.00
0.00 0.01 0.04 0.07 0.06 0.01 0.00 0.00 0.00 0.00 0.00 0.00 0.00 0.00 0.00 0.00 0.00 0.00 0.00 0.00 0.00 0.00 0.00 0.00 0.00 0.00 0.00 0.00 0.00 0.00 0.00 0.00 0.00
0.00 0.00 0.00 0.03 0.06 0.05 0.02 0.00 0.00 0.00 0.00 0.00 0.00 0.00 0.00 0.00 0.00 0.00 0.00 0.00 0.00 0.00 0.00 0.00 0.00 0.00 0.00 0.00 0.00 0.00 0.00 0.00 0.00
0.00 0.00 0.00 0.00 0.00 0.00 0.03 0.04 0.00 0.00 0.00 0.00 0.00 0.00 0.00 0.00 0.00 0.00 0.00 0.00 0.00 0.00 0.00 0.00 0.00 0.00 0.00 0.00 0.00 0.00 0.00 0.00 0.00
0.00 0.00 0.00 0.00 0.00 0.00 0.00 0.04 0.02 0.00 0.00 0.00 0.00 0.00 0.00 0.00 0.00 0.00 0.00 0.00 0.00 0.00 0.00 0.00 0.00 0.00 0.00 0.00 0.00 0.00 0.00 0.00 0.00
0.00 0.00 0.00 0.00 0.00 0.00 0.00 0.00 0.02 0.00 0.00 0.00 0.00 0.00 0.00 0.00 0.00 0.00 0.00 0.00 0.00 0.00 0.00 0.00 0.00 0.00 0.00 0.00 0.00 0.00 0.00 0.00 0.00
0.00 0.00 0.00 0.00 0.00 0.00 0.00 0.00 0.00 0.00 0.00 0.00 0.00 0.00 0.00 0.00 0.00 0.00 0.00 0.00 0.00 0.00 0.00 0.00 0.00 0.00 0.00 0.00 0.00 0.00 0.00 0.00 0.00
0.00 0.00 0.00 0.00 0.00 0.00 0.00 0.00 0.00 0.00 0.00 0.00 0.00 0.00 0.00 0.00 0.00 0.00 0.00 0.00 0.00 0.00 0.00 0.00 0.00 0.00 0.00 0.00 0.00 0.00 0.00 0.00 0.00
0.00 0.00 0.00 0.00 0.00 0.00 0.00 0.00 0.00 0.00 0.00 0.00 0.00 0.00 0.00 0.00 0.00 0.00 0.00 0.00 0.00 0.00 0.00 0.00 0.00 0.00 0.00 0.00 0.00 0.00 0.00 0.00 0.00
0.00 0.00 0.00 0.01 0.01 0.00 0.01 0.01 0.00 0.00 0.00 0.00 0.00 0.00 0.00 0.00 0.00 0.00 0.00 0.00 0.00 0.00 0.00 0.00 0.00 0.00 0.00 0.00 0.00 0.00 0.00 0.00 0.00
0.00 0.00 0.00 0.00 0.00 0.00 0.00 0.01 0.01 0.02 0.00 0.00 0.00 0.00 0.00 0.00 0.00 0.00 0.00 0.00 0.00 0.00 0.00 0.00 0.00 0.00 0.00 0.00 0.05 0.01 0.00 0.00 0.00
0.00 0.00 0.00 0.00 0.00 0.00 0.00 0.00 0.00 0.01 0.02 0.01 0.00 0.00 0.00 0.00 0.00 0.00 0.00 0.00 0.00 0.00 0.00 0.00 0.00 0.00 0.00 0.00 0.01 0.02 0.00 0.00 0.00
0.00 0.00 0.00 0.00 0.00 0.00 0.00 0.00 0.00 0.00 0.01 0.01 0.02 0.02 0.01 0.00 0.00 0.00 0.00 0.00 0.00 0.00 0.00 0.00 0.00 0.00 0.00 0.00 0.00 0.01 0.01 0.00 0.00
0.00 0.00 0.00 0.00 0.00 0.00 0.00 0.00 0.00 0.00 0.00 0.01 0.01 0.01 0.00 0.00 0.00 0.00 0.00 0.00 0.00 0.00 0.00 0.00 0.00 0.00 0.00 0.00 0.00 0.00 0.01 0.02 0.00
0.00 0.00 0.00 0.00 0.00 0.00 0.00 0.00 0.00 0.00 0.00 0.00 0.00 0.00 0.00 0.00 0.00 0.00 0.00 0.00 0.00 0.00 0.00 0.00 0.00 0.00 0.00 0.00 0.00 0.00 0.00 0.00 0.02
0.00 0.00 0.00 0.00 0.00 0.00 0.00 0.00 0.00 0.00 0.00 0.00 0.00 0.00 0.00 0.00 0.00 0.00 0.00 0.00 0.00 0.00 0.00 0.00 0.00 0.00 0.00 0.00 0.00 0.00 0.00 0.00 0.00
0.00 0.00 0.00 0.00 0.00 0.00 0.00 0.00 0.00 0.00 0.00 0.00 0.00 0.00 0.00 0.00 0.00 0.00 0.00 0.00 0.00 0.00 0.00 0.00 0.00 0.00 0.00 0.00 0.00 0.00 0.00 0.00 0.01
0.00 0.00 0.00 0.00 0.00 0.00 0.00 0.00 0.00 0.00 0.00 0.00 0.00 0.00 0.00 0.00 0.00 0.00 0.00 0.00 0.00 0.00 0.00 0.00 0.00 0.00 0.00 0.00 0.00 0.00 0.00 0.00 0.00
0.00 0.00 0.00 0.00 0.00 0.00 0.00 0.00 0.00 0.00 0.00 0.00 0.00 0.00 0.00 0.00 0.00 0.00 0.00 0.00 0.00 0.00 0.00 0.00 0.00 0.00 0.00 0.00 0.00 0.00 0.00 0.00 0.00
MSLP
1016.74 1017.04 1017.25 1017.50 1017.62 1017.73 1017.82 1017.94 1018.01 1018.08 1018.05 1018.12 1018.10 1018.24 1018.33 1018.43 1018.41 1018.34 1018.14 1018.03 1017.86 1017.92 1017.92 1017.80 1017.68 1017.56 1017.52 1017.33 1017.21 1017.02 1016.87 1016.69 1016.49
1017.03 1017.29 1017.56 1017.75 1017.85 1017.97 1018.03 1018.12 1018.24 1018.28 1018.27 1018.33 1018.46 1018.56 1018.63 1018.74 1018.82 1018.71 1018.56 1018.37 1018.30 1018.19 1018.27 1018.29 1018.17 1018.04 1018.00 1017.89 1017.71 1017.56 1017.30 1017.09 1016.90
1017.57 1017.58 1017.78 1017.95 1018.03 1018.17 1018.28 1018.36 1018.42 1018.50 1018.58 1018.63 1018.78 1018.83 1018.90 1018.97 1019.03 1018.99 1018.83 1018.62 1018.56 1018.57 1018.56 1018.62 1018.73 1018.64 1018.51 1018.35 1018.19 1018.11 1017.92 1017.67 1017.42
1018.10 1018.15 1018.18 1018.24 1018.26 1018.36 1018.47 1018.58 1018.63 1018.70 1018.79 1018.94 1019.06 1019.05 1019.16 1019.25 1019.22 1019.14 1019.09 1018.90 1018.83 1018.92 1018.90 1018.84 1018.84 1018.97 1018.98 1019.07 1018.87 1018.54 1018.37 1018.13 1017.92
1018.24 1018.55 1018.65 1018.59 1018.61 1018.67 1018.66 1018.71 1018.83 1018.88 1018.97 1019.09 1019.18 1019.23 1019.31 1019.48 1019.40 1019.41 1019.31 1019.28 1019.21 1019.28 1019.27 1019.18 1019.18 1019.25 1019.25 1019.11 1019.29 1019.25 1018.93 1018.70 1018.47
1018.91 1018.86 1019.02 1018.89 1018.86 1018.94 1018.89 1018.82 1018.93 1019.03 1019.11 1019.27 1019.33 1019.34 1019.46 1019.60 1019.54 1019.50 1019.36 1019.36 1019.31 1019.43 1019.53 1019.53 1019.45 1019.47 1019.56 1019.54 1019.37 1019.46 1019.50 1019.31 1019.06
1019.13 1019.32 1019.44 1019.52 1019.30 1018.98 1018.91 1018.99 1019.11 1019.24 1019.28 1019.37 1019.40 1019.39 1019.41 1019.72 1019.66 1019.65 1019.58 1019.58 1019.54 1019.63 1019.72 1019.74 1019.77 1019.66 1019.66 1019.69 1019.65 1019.64 1019.62 1019.69 1019.58
1019.54 1019.65 1019.84 1019.88 1019.79 1019.54 1019.30 1019.30 1019.42 1019.39 1019.33 1019.31 1019.50 1019.34 1019.42 1019.68 1019.82 1019.72 1019.62 1019.71 1019.74 1019.78 1019.82 1019.88 1019.90 1019.96 1019.91 1019.92 1019.96 1020.00 1019.83 1019.85 1019.87
1020.11 1020.04 1020.17 1020.17 1020.25 1020.26 1020.12 1019.81 1019.66 1019.61 1019.46 1019.42 1019.27 1019.43 1019.54 1019.65 1019.90 1020.06 1020.00 1019.86 1019.86 1019.94 1019.95 1019.98 1020.00 1020.09 1020.19 1020.16 1020.16 1020.21 1020.31 1020.19 1020.15
1020.85 1020.50 1020.54 1020.56 1020.64 1020.53 1020.58 1020.42 1020.08 1019.95 1019.80 1019.78 1019.63 1019.69 1019.80 1019.72 1019.83 1019.99 1020.15 1020.16 1020.08 1019.99 1020.07 1020.07 1020.10 1020.08 1020.14 1020.26 1020.30 1020.32 1020.33 1020.38 1020.32
1021.34 1021.11 1020.93 1020.84 1020.96 1020.83 1020.73 1020.67 1020.66 1020.26 1020.20 1020.08 1020.08 1020.06 1020.28 1020.12 1020.10 1020.21 1020.22 1020.23 1020.30 1020.26 1020.11 1020.14 1020.06 1020.06 1020.18 1020.19 1020.29 1020.30 1020.53 1020.59 1020.52
1022.33 1021.54 1021.38 1021.11 1021.18 1020.94 1020.95 1020.79 1020.81 1020.53 1020.36 1020.57 1020.41 1020.38 1020.59 1020.61 1020.35 1020.31 1020.34 1020.33 1020.18 1020.30 1020.29 1020.24 1020.21 1020.09 1020.00 1020.00 1020.21 1020.29 1020.43 1020.61 1020.67
1022.61 1022.13 1022.01 1021.74 1021.54 1021.28 1021.28 1021.24 1021.01 1021.28 1020.79 1020.93 1020.95 1020.91 1020.79 1020.97 1020.80 1020.49 1020.48 1020.44 1020.34 1020.20 1020.25 1020.35 1020.46 1020.29 1020.17 1020.09 1020.03 1020.12 1020.32 1020.55 1020.68
1023.50 1021.97 1022.39 1022.15 1022.29 1021.78 1021.62 1021.84 1021.58 1021.69 1021.52 1021.17 1021.28 1021.34 1021.26 1021.15 1021.04 1020.86 1020.62 1020.54 1020.39 1020.48 1020.22 1020.27 1020.42 1020.40 1020.39 1020.31 1020.11 1020.12 1020.15 1020.42 1020.66
1022.90 1022.52 1023.20 1021.86 1023.02 1022.42 1021.81 1022.22 1022.69 1021.91 1021.63 1021.38 1021.34 1021.36 1021.33 1021.43 1021.33 1021.23 1020.78 1020.69 1020.50 1020.44 1020.28 1020.23 1020.32 1020.35 1020.35 1020.38 1020.27 1020.23 1020.17 1020.26 1020.46
1023.76 1023.02 1023.28 1022.82 1022.90 1022.31 1022.86 1023.05 1022.92 1022.45 1021.74 1021.52 1021.42 1021.31 1021.37 1021.44 1021.39 1021.33 1020.97 1020.82 1020.67 1020.48 1020.43 1020.38 1020.29 1020.39 1020.41 1020.31 1020.42 1020.32 1020.27 1020.31 1020.25
1024.25 1023.99 1023.28 1023.24 1023.27 1023.31 1023.81 1023.11 1022.97 1022.96 1022.51 1022.02 1021.84 1021.87 1021.97 1021.70 1021.67 1021.46 1021.29 1021.33 1021.15 1021.16 1021.22 1020.98 1020.84 1020.91 1020.93 1020.87 1020.80 1020.62 1020.48 1020.31 1020.35
1023.86 1023.92 1024.02 1024.37 1023.91 1024.00 1023.72 1023.11 1023.89 1023.68 1023.15 1022.75 1021.91 1022.22 1022.48 1022.67 1022.20 1022.06 1022.08 1021.98 1021.94 1022.00 1021.77 1021.65 1021.48 1021.57 1021.53 1021.50 1021.34 1021.14 1020.95 1020.66 1020.43
1023.79 1024.63 1024.77 1024.20 1023.65 1024.48 1024.28 1023.97 1023.96 1024.04 1023.74 1023.45 1022.89 1022.22 1022.36 1022.87 1023.07 1022.64 1022.74 1022.61 1022.59 1022.63 1022.32 1022.31 1022.28 1022.24 1022.30 1022.26 1022.18 1021.90 1021.66 1021.31 1021.08
1024.70 1024.57 1024.23 1024.90 1024.87 1024.91 1024.26 1024.31 1024.34 1024.39 1024.55 1024.29 1023.96 1023.39 1022.78 1023.02 1023.61 1022.93 1023.45 1022.99 1022.97 1023.02 1022.89 1022.88 1023.05 1023.15 1022.93 1022.93 1022.86 1022.68 1022.52 1022.27 1021.78
Thickness
5710 5709 5708 5707 5708 5709 5710 5711 5712 5713 5714 5713 5715 5714 5716 5716 5716 5716 5716 5717 5716 5715 5714 5714 5713 5713 5711 5711 5710 5710 5708 5708 5707
5706 5705 5703 5703 5704 5705 5706 5707 5708 5709 5712 5711 5711 5711 5712 5713 5713 5713 5713 5714 5713 5712 5710 5709 5709 5708 5707 5706 5706 5706 5707 5707 5706
5699 5700 5699 5699 5699 5700 5701 5702 5704 5705 5706 5707 5707 5708 5708 5709 5709 5710 5710 5710 5710 5709 5708 5706 5703 5702 5702 5703 5703 5702 5701 5702 5703
5692 5694 5695 5695 5696 5696 5697 5698 5699 5700 5701 5701 5703 5704 5705 5705 5706 5706 5707 5707 5707 5706 5706 5705 5704 5700 5698 5695 5697 5700 5700 5700 5700
5687 5686 5689 5692 5692 5691 5692 5694 5695 5695 5697 5697 5698 5700 5701 5701 5702 5703 5703 5702 5702 5702 5701 5701 5700 5698 5697 5696 5692 5691 5695 5695 5696
5677 5681 5681 5684 5687 5686 5687 5689 5690 5691 5693 5693 5694 5696 5697 5698 5699 5699 5699 5699 5699 5698 5696 5696 5697 5695 5693 5692 5692 5690 5687 5689 5691
5672 5672 5674 5675 5679 5683 5684 5684 5684 5686 5688 5690 5691 5692 5693 5693 5695 5694 5694 5694 5694 5694 5692 5692 5691 5692 5691 5689 5689 5688 5687 5684 5685
5663 5666 5667 5669 5671 5675 5679 5680 5680 5680 5683 5685 5686 5687 5689 5689 5690 5691 5691 5690 5690 5690 5689 5688 5688 5686 5687 5686 5684 5682 5684 5683 5682
5652 5655 5658 5661 5662 5665 5668 5673 5675 5676 5679 5680 5684 5682 5683 5684 5684 5684 5684 5685 5686 5685 5685 5684 5684 5682 5680 5681 5681 5680 5677 5678 5678
5639 5646 5649 5651 5653 5657 5659 5663 5667 5670 5672 5673 5677 5678 5678 5680 5681 5681 5680 5680 5681 5682 5681 5681 5681 5680 5679 5677 5676 5676 5675 5674 5675
5628 5633 5639 5643 5645 5648 5651 5654 5656 5662 5664 5665 5667 5670 5671 5672 5674 5675 5676 5677 5676 5676 5678 5677 5678 5678 5676 5676 5673 5674 5670 5669 5671
5611 5622 5627 5633 5635 5640 5642 5646 5648 5653 5657 5657 5659 5661 5663 5664 5669 5669 5670 5671 5674 5673 5673 5673 5673 5674 5675 5675 5672 5671 5669 5666 5665
5604 5609 5615 5620 5624 5630 5632 5635 5639 5640 5647 5648 5650 5653 5656 5656 5660 5664 5664 5666 5667 5670 5670 5668 5667 5668 5669 5671 5672 5670 5667 5664 5662
5586 5601 5604 5608 5611 5618 5623 5622 5628 5630 5634 5641 5643 5644 5646 5649 5651 5656 5659 5661 5663 5662 5665 5665 5663 5664 5664 5665 5667 5667 5668 5664 5660
5580 5588 5588 5600 5593 5606 5613 5611 5611 5620 5625 5632 5635 5637 5639 5640 5642 5646 5651 5654 5657 5658 5659 5659 5659 5659 5660 5661 5662 5663 5665 5664 5661
5563 5575 5576 5583 5587 5598 5595 5594 5601 5608 5616 5622 5626 5629 5631 5632 5636 5639 5644 5647 5650 5652 5652 5652 5653 5654 5655 5658 5657 5658 5659 5660 5661
5548 5555 5566 5570 5575 5578 5575 5585 5590 5593 5600 5611 5613 5621 5621 5622 5626 5630 5636 5637 5639 5640 5639 5643 5644 5645 5646 5649 5650 5652 5653 5655 5655
5541 5543 5545 5548 5559 5561 5566 5575 5571 5579 5586 5592 5607 5608 5610 5603 5612 5618 5621 5624 5626 5627 5629 5631 5634 5634 5637 5639 5642 5643 5645 5647 5649
5526 5519 5524 5539 5547 5544 5550 5558 5562 5566 5572 5579 5587 5595 5597 5597 5602 5606 5607 5610 5612 5613 5617 5620 5622 5623 5624 5626 5628 5631 5632 5635 5638
5506 5510 5520 5521 5525 5530 5539 5543 5549 5554 5556 5561 5568 5576 5584 5584 5586 5600 5593 5599 5601 5601 5605 5608 5609 5610 5613 5614 5616 5617 5619 5621 5627